User: anonymous   Login
Location: Valley View Observatory
(41.0081°N, 76.5874°W)
Time: 03:53:23
(UTC-04:00)
Language:

Cosmos 2237 Rocket - Orbit

View from above orbital plane
View from above orbital plane
View from above satellite
View from above satellite

Ground track
Ground track

The orbit data is extracted from the following two-line orbital elements,

1 22566U 93016B   16210.63368436 -.00000294  00000-0 -12721-3 0  9992
2 22566  71.0077  26.0738 0012729 266.9963  92.9702 14.14929862205500
Epoch (UTC): 28 July 2016 15:12:30
Eccentricity: 0.0012729
inclination: 71.0077°
perigee height: 833 km
apogee height: 852 km
right ascension of ascending node: 26.0738°
argument of perigee: 266.9963°
revolutions per day: 14.14929862
mean anomaly at epoch: 92.9702°
orbit number at epoch: 20550

The dashed part of the orbit path shows where the satellite is in the earth's shadow,  

DLR